| time (UTC) | temp F | wind direction | speed MPH | gust MPH | rain 1hr in | rain 24hr in | rain mn in | humidity % | barometer mb |
| 20260505024544 | 60 | 188 | 4.0 | 13.0 | 0.00 | 0.00 | 0.00 | 46 | 1007.1 |
| 20260505024030 | 60 | 218 | 3.0 | 11.0 | 0.00 | 0.00 | 0.00 | 45 | 1007.0 |
| 20260505023530 | 60 | 224 | 4.0 | 12.0 | 0.00 | 0.00 | 0.00 | 45 | 1007.0 |
| 20260505023047 | 60 | 155 | 5.0 | 12.0 | 0.00 | 0.00 | 0.00 | 45 | 1007.0 |
| 20260505022532 | 61 | 222 | 4.0 | 12.0 | 0.00 | 0.00 | 0.00 | 44 | 1007.0 |
| 20260505022031 | 61 | 194 | 3.0 | 12.0 | 0.00 | 0.00 | 0.00 | 43 | 1007.0 |
| 20260505021545 | 61 | 148 | 3.0 | 10.0 | 0.00 | 0.00 | 0.00 | 43 | 1007.0 |
| 20260505021030 | 61 | 232 | 3.0 | 14.0 | 0.00 | 0.00 | 0.00 | 43 | 1006.9 |
| 20260505020529 | 61 | 259 | 6.0 | 14.0 | 0.00 | 0.00 | 0.00 | 44 | 1006.8 |
| 20260505020040 | 61 | 234 | 4.0 | 10.0 | 0.00 | 0.00 | 0.00 | 44 | 1006.8 |
| 20260505015530 | 61 | 178 | 3.0 | 10.0 | 0.00 | 0.00 | 0.00 | 45 | 1006.9 |
| 20260505015033 | 61 | 259 | 4.0 | 10.0 | 0.00 | 0.00 | 0.00 | 44 | 1006.8 |
| 20260505014543 | 60 | 187 | 3.0 | 12.0 | 0.00 | 0.00 | 0.00 | 45 | 1006.9 |
| 20260505014030 | 60 | 203 | 3.0 | 13.0 | 0.00 | 0.00 | 0.00 | 45 | 1006.9 |
| 20260505013532 | 60 | 236 | 4.0 | 13.0 | 0.00 | 0.00 | 0.00 | 46 | 1006.9 |
| 20260505013034 | 60 | 234 | 2.0 | 11.0 | 0.00 | 0.00 | 0.00 | 45 | 1006.8 |
| 20260505012530 | 60 | 229 | 3.0 | 11.0 | 0.00 | 0.00 | 0.00 | 45 | 1006.8 |
| 20260505012030 | 60 | 240 | 2.0 | 10.0 | 0.00 | 0.00 | 0.00 | 46 | 1006.8 |
| 20260505011543 | 60 | 211 | 3.0 | 10.0 | 0.00 | 0.00 | 0.00 | 46 | 1006.8 |
| 20260505011029 | 60 | 251 | 2.0 | 8.0 | 0.00 | 0.00 | 0.00 | 47 | 1006.8 |
| 20260505010529 | 60 | 189 | 2.0 | 8.0 | 0.00 | 0.00 | 0.00 | 47 | 1006.8 |
| 20260505010043 | 59 | 273 | 3.0 | 8.0 | 0.00 | 0.00 | 0.00 | 47 | 1006.7 |
| 20260505005530 | 59 | 241 | 1.0 | 5.0 | 0.00 | 0.00 | 0.00 | 47 | 1006.7 |
| 20260505005030 | 59 | 196 | 1.0 | 8.0 | 0.00 | 0.00 | 0.00 | 47 | 1006.7 |
| 20260505004540 | 59 | 208 | 1.0 | 8.0 | 0.00 | 0.00 | 0.00 | 47 | 1006.6 |
| 20260505004029 | 59 | 242 | 2.0 | 8.0 | 0.00 | 0.00 | 0.00 | 49 | 1006.5 |
| 20260505003530 | 59 | 194 | 1.0 | 4.0 | 0.00 | 0.00 | 0.00 | 48 | 1006.5 |
| 20260505003039 | 60 | 199 | 1.0 | 4.0 | 0.00 | 0.00 | 0.00 | 47 | 1006.4 |
| 20260505002533 | 60 | 209 | 0.0 | 2.0 | 0.00 | 0.00 | 0.00 | 46 | 1006.3 |
| 20260505002029 | 61 | 0 | 0.0 | 2.0 | 0.00 | 0.00 | 0.00 | 45 | 1006.2 |
| 20260505001546 | 61 | 209 | 0.0 | 3.0 | 0.00 | 0.00 | 0.00 | 44 | 1006.1 |
| 20260505001029 | 61 | 0 | 0.0 | 4.0 | 0.00 | 0.00 | 0.00 | 44 | 1006.2 |
| 20260505000529 | 62 | 209 | 1.0 | 4.0 | 0.00 | 0.00 | 0.00 | 44 | 1006.0 |
| 20260505000052 | 62 | 192 | 1.0 | 5.0 | 0.00 | 0.00 | 0.00 | 43 | 1006.0 |
| 20260504235530 | 62 | 230 | 0.0 | 9.0 | 0.00 | 0.00 | 0.00 | 43 | 1005.8 |
| 20260504235030 | 63 | 192 | 2.0 | 9.0 | 0.00 | 0.00 | 0.00 | 42 | 1005.7 |
| 20260504234538 | 63 | 0 | 3.0 | 7.0 | 0.00 | 0.00 | 0.00 | 42 | 1005.6 |
| 20260504234029 | 63 | 192 | 3.0 | 7.0 | 0.00 | 0.00 | 0.00 | 41 | 1005.6 |
| 20260504233529 | 63 | 251 | 4.0 | 9.0 | 0.00 | 0.00 | 0.00 | 41 | 1005.6 |
| 20260504233038 | 63 | 212 | 3.0 | 9.0 | 0.00 | 0.00 | 0.00 | 41 | 1005.4 |
| 20260504232530 | 63 | 184 | 3.0 | 9.0 | 0.00 | 0.00 | 0.00 | 41 | 1005.4 |
| 20260504232031 | 64 | 267 | 3.0 | 9.0 | 0.00 | 0.00 | 0.00 | 40 | 1005.3 |
| 20260504231553 | 64 | 229 | 3.0 | 12.0 | 0.00 | 0.00 | 0.00 | 40 | 1005.2 |
| 20260504231031 | 64 | 262 | 3.0 | 12.0 | 0.00 | 0.00 | 0.00 | 40 | 1005.0 |
| 20260504230530 | 64 | 282 | 6.0 | 12.0 | 0.00 | 0.00 | 0.00 | 39 | 1005.0 |
| 20260504230035 | 65 | 246 | 4.0 | 9.0 | 0.00 | 0.00 | 0.00 | 39 | 1005.0 |
| 20260504225531 | 65 | 227 | 4.0 | 21.0 | 0.00 | 0.00 | 0.00 | 39 | 1005.0 |
| 20260504225029 | 65 | 265 | 9.0 | 21.0 | 0.00 | 0.00 | 0.00 | 38 | 1004.9 |
| 20260504224539 | 65 | 240 | 8.0 | 19.0 | 0.00 | 0.00 | 0.00 | 37 | 1004.9 |
| 20260504224032 | 66 | 260 | 6.0 | 18.0 | 0.00 | 0.00 | 0.00 | 37 | 1004.9 |
| 20260504223534 | 66 | 281 | 9.0 | 17.0 | 0.00 | 0.00 | 0.00 | 37 | 1004.8 |
| 20260504223042 | 66 | 273 | 5.0 | 12.0 | 0.00 | 0.00 | 0.00 | 38 | 1004.8 |
| 20260504222530 | 66 | 265 | 6.0 | 16.0 | 0.00 | 0.00 | 0.00 | 37 | 1004.8 |
| 20260504222029 | 66 | 224 | 7.0 | 16.0 | 0.00 | 0.00 | 0.00 | 37 | 1004.8 |
| 20260504221545 | 66 | 279 | 6.0 | 14.0 | 0.00 | 0.00 | 0.00 | 37 | 1004.6 |
| 20260504221029 | 66 | 234 | 7.0 | 16.0 | 0.00 | 0.00 | 0.00 | 37 | 1004.6 |
| 20260504220529 | 66 | 238 | 7.0 | 16.0 | 0.00 | 0.00 | 0.00 | 36 | 1004.5 |
| 20260504220039 | 66 | 271 | 5.0 | 21.0 | 0.00 | 0.00 | 0.00 | 36 | 1004.5 |
| 20260504215529 | 66 | 248 | 8.0 | 21.0 | 0.00 | 0.00 | 0.00 | 36 | 1004.7 |
| 20260504215031 | 66 | 298 | 7.0 | 15.0 | 0.00 | 0.00 | 0.00 | 36 | 1004.6 |
| 20260504214545 | 66 | 257 | 8.0 | 15.0 | 0.00 | 0.00 | 0.00 | 37 | 1004.6 |
| 20260504214033 | 66 | 275 | 7.0 | 18.0 | 0.00 | 0.00 | 0.00 | 37 | 1004.7 |
| 20260504213530 | 66 | 241 | 8.0 | 19.0 | 0.00 | 0.00 | 0.00 | 37 | 1004.7 |
| 20260504213035 | 66 | 256 | 9.0 | 19.0 | 0.00 | 0.00 | 0.00 | 37 | 1004.6 |
| 20260504212532 | 66 | 234 | 9.0 | 19.0 | 0.00 | 0.00 | 0.00 | 37 | 1004.9 |
| 20260504212028 | 66 | 249 | 7.0 | 21.0 | 0.00 | 0.00 | 0.00 | 38 | 1004.9 |
| 20260504211549 | 66 | 273 | 7.0 | 21.0 | 0.00 | 0.00 | 0.00 | 37 | 1004.9 |
| 20260504211027 | 66 | 184 | 9.0 | 18.0 | 0.00 | 0.00 | 0.00 | 37 | 1004.8 |
| 20260504210529 | 66 | 292 | 7.0 | 22.0 | 0.00 | 0.00 | 0.00 | 37 | 1004.8 |
| 20260504205530 | 66 | 269 | 9.0 | 20.0 | 0.00 | 0.00 | 0.00 | 37 | 1004.8 |
| 20260504205028 | 66 | 273 | 7.0 | 17.0 | 0.00 | 0.00 | 0.00 | 37 | 1004.9 |
| 20260504204546 | 66 | 255 | 8.0 | 16.0 | 0.00 | 0.00 | 0.00 | 38 | 1004.8 |
| 20260504204030 | 66 | 250 | 8.0 | 21.0 | 0.00 | 0.00 | 0.00 | 37 | 1004.8 |
| 20260504203530 | 66 | 277 | 8.0 | 21.0 | 0.00 | 0.00 | 0.00 | 37 | 1004.9 |
| 20260504203044 | 66 | 273 | 6.0 | 17.0 | 0.00 | 0.00 | 0.00 | 38 | 1004.9 |
| 20260504202530 | 65 | 262 | 9.0 | 20.0 | 0.00 | 0.00 | 0.00 | 39 | 1004.8 |
| 20260504202027 | 65 | 246 | 11.0 | 20.0 | 0.00 | 0.00 | 0.00 | 38 | 1004.9 |
| 20260504201540 | 65 | 229 | 10.0 | 21.0 | 0.00 | 0.00 | 0.00 | 39 | 1004.9 |
| 20260504201029 | 65 | 259 | 8.0 | 21.0 | 0.00 | 0.00 | 0.00 | 39 | 1004.9 |
| 20260504200529 | 66 | 236 | 9.0 | 20.0 | 0.00 | 0.00 | 0.00 | 38 | 1005.0 |
| 20260504200042 | 65 | 309 | 11.0 | 18.0 | 0.00 | 0.00 | 0.00 | 39 | 1004.9 |
| 20260504195529 | 65 | 289 | 8.0 | 23.0 | 0.00 | 0.00 | 0.00 | 41 | 1005.1 |
| 20260504195029 | 65 | 270 | 13.0 | 23.0 | 0.00 | 0.00 | 0.00 | 40 | 1004.9 |
| 20260504194559 | 65 | 281 | 10.0 | 18.0 | 0.00 | 0.00 | 0.00 | 41 | 1005.2 |
| 20260504194030 | 64 | 254 | 8.0 | 18.0 | 0.00 | 0.00 | 0.00 | 41 | 1005.1 |
| 20260504193529 | 64 | 273 | 7.0 | 18.0 | 0.00 | 0.00 | 0.00 | 41 | 1005.1 |
| 20260504193038 | 64 | 232 | 8.0 | 18.0 | 0.00 | 0.00 | 0.00 | 40 | 1005.2 |
| 20260504192530 | 65 | 265 | 8.0 | 18.0 | 0.00 | 0.00 | 0.00 | 38 | 1005.1 |
| 20260504192032 | 65 | 269 | 9.0 | 18.0 | 0.00 | 0.00 | 0.00 | 39 | 1005.0 |
| 20260504191546 | 65 | 221 | 8.0 | 18.0 | 0.00 | 0.00 | 0.00 | 40 | 1005.0 |
| 20260504191028 | 64 | 206 | 6.0 | 20.0 | 0.00 | 0.00 | 0.00 | 40 | 1005.1 |
| 20260504190532 | 65 | 263 | 8.0 | 25.0 | 0.00 | 0.00 | 0.00 | 42 | 1005.1 |
| 20260504190045 | 64 | 351 | 9.0 | 25.0 | 0.00 | 0.00 | 0.00 | 41 | 1005.1 |
| 20260504185532 | 64 | 246 | 11.0 | 24.0 | 0.00 | 0.00 | 0.00 | 41 | 1005.2 |
| 20260504185035 | 63 | 261 | 11.0 | 24.0 | 0.00 | 0.00 | 0.00 | 40 | 1005.0 |
| 20260504184551 | 63 | 309 | 9.0 | 28.0 | 0.00 | 0.00 | 0.00 | 41 | 1005.1 |
| 20260504184030 | 63 | 223 | 13.0 | 28.0 | 0.00 | 0.00 | 0.00 | 40 | 1005.2 |
| 20260504183533 | 64 | 257 | 9.0 | 24.0 | 0.00 | 0.00 | 0.00 | 40 | 1005.3 |
| 20260504183040 | 64 | 268 | 10.0 | 23.0 | 0.00 | 0.00 | 0.00 | 41 | 1005.2 |
| 20260504182530 | 64 | 246 | 10.0 | 24.0 | 0.00 | 0.00 | 0.00 | 42 | 1005.2 |
| 20260504182030 | 64 | 198 | 6.0 | 24.0 | 0.00 | 0.00 | 0.00 | 45 | 1005.2 |
| 20260504181545 | 64 | 306 | 7.0 | 21.0 | 0.00 | 0.00 | 0.00 | 42 | 1005.2 |
| 20260504181030 | 63 | 180 | 10.0 | 21.0 | 0.00 | 0.00 | 0.00 | 40 | 1005.1 |
| 20260504180530 | 64 | 238 | 9.0 | 21.0 | 0.00 | 0.00 | 0.00 | 40 | 1005.1 |
| 20260504180106 | 64 | 272 | 8.0 | 21.0 | 0.00 | 0.00 | 0.00 | 42 | 1005.2 |
| 20260504175531 | 63 | 333 | 10.0 | 21.0 | 0.00 | 0.00 | 0.00 | 42 | 1005.3 |
| 20260504175033 | 63 | 224 | 9.0 | 19.0 | 0.00 | 0.00 | 0.00 | 42 | 1005.3 |
| 20260504174545 | 63 | 222 | 7.0 | 19.0 | 0.00 | 0.00 | 0.00 | 45 | 1005.2 |
| 20260504174030 | 63 | 261 | 9.0 | 18.0 | 0.00 | 0.00 | 0.00 | 43 | 1005.2 |
| 20260504173530 | 63 | 229 | 11.0 | 18.0 | 0.00 | 0.00 | 0.00 | 42 | 1005.4 |
| 20260504173053 | 62 | 271 | 8.0 | 17.0 | 0.00 | 0.00 | 0.00 | 45 | 1005.4 |
| 20260504172532 | 62 | 296 | 8.0 | 16.0 | 0.00 | 0.00 | 0.00 | 45 | 1005.4 |
| 20260504172029 | 62 | 251 | 7.0 | 22.0 | 0.00 | 0.00 | 0.00 | 43 | 1005.3 |
| 20260504171540 | 63 | 271 | 6.0 | 22.0 | 0.00 | 0.00 | 0.00 | 44 | 1005.3 |
| 20260504171030 | 63 | 200 | 10.0 | 17.0 | 0.00 | 0.00 | 0.00 | 43 | 1005.2 |
| 20260504170532 | 62 | 214 | 10.0 | 18.0 | 0.00 | 0.00 | 0.00 | 44 | 1005.4 |
| 20260504151032 | 59 | 305 | 10.0 | 23.0 | 0.00 | 0.00 | 0.00 | 43 | 1006.2 |
| 20260504150529 | 59 | 206 | 10.0 | 19.0 | 0.00 | 0.00 | 0.00 | 44 | 1006.2 |
| 20260504141031 | 56 | 271 | 9.0 | 24.0 | 0.00 | 0.00 | 0.00 | 47 | 1006.4 |
| 20260504140529 | 56 | 234 | 9.0 | 16.0 | 0.00 | 0.00 | 0.00 | 48 | 1006.3 |
| 20260504130530 | 52 | 221 | 4.0 | 13.0 | 0.00 | 0.00 | 0.00 | 58 | 1007.0 |
| 20260504120107 | 48 | 221 | 4.0 | 12.0 | 0.00 | 0.00 | 0.00 | 62 | 1007.4 |
| 20260504110529 | 46 | 237 | 3.0 | 12.0 | 0.00 | 0.00 | 0.00 | 72 | 1007.5 |
| 20260504100529 | 42 | 275 | 2.0 | 6.0 | 0.00 | 0.00 | 0.00 | 79 | 1007.2 |
| 20260504081539 | 41 | 262 | 2.0 | 6.0 | 0.00 | 0.00 | 0.00 | 75 | 1007.4 |
| 20260504081033 | 41 | 281 | 2.0 | 6.0 | 0.00 | 0.00 | 0.00 | 75 | 1007.5 |
| 20260504080529 | 41 | 263 | 2.0 | 5.0 | 0.00 | 0.00 | 0.00 | 74 | 1007.5 |
| 20260504050530 | 37 | 250 | 1.0 | 4.0 | 0.00 | 0.00 | 0.00 | 68 | 1007.5 |
| 20260504050113 | 37 | 239 | 0.0 | 3.0 | 0.00 | 0.00 | 0.00 | 67 | 1007.5 |
| 20260504045530 | 37 | 0 | 1.0 | 3.0 | 0.00 | 0.00 | 0.00 | 66 | 1007.5 |
| 20260504045029 | 37 | 236 | 1.0 | 3.0 | 0.00 | 0.00 | 0.00 | 66 | 1007.5 |
| 20260504044542 | 37 | 229 | 0.0 | 3.0 | 0.00 | 0.00 | 0.00 | 65 | 1007.5 |
| 20260504044030 | 37 | 229 | 0.0 | 3.0 | 0.00 | 0.00 | 0.00 | 66 | 1007.5 |
| 20260504043534 | 37 | 219 | 1.0 | 4.0 | 0.00 | 0.00 | 0.00 | 65 | 1007.5 |
| 20260504043043 | 37 | 0 | 1.0 | 4.0 | 0.00 | 0.00 | 0.00 | 65 | 1007.6 |
| 20260504042530 | 37 | 238 | 1.0 | 4.0 | 0.00 | 0.00 | 0.00 | 65 | 1007.6 |
| 20260504042029 | 37 | 227 | 1.0 | 4.0 | 0.00 | 0.00 | 0.00 | 65 | 1007.6 |
| 20260504041541 | 37 | 238 | 2.0 | 4.0 | 0.00 | 0.00 | 0.00 | 65 | 1007.5 |
| 20260504041030 | 37 | 254 | 1.0 | 3.0 | 0.00 | 0.00 | 0.00 | 64 | 1007.5 |
| 20260504040529 | 37 | 239 | 0.0 | 2.0 | 0.00 | 0.00 | 0.00 | 65 | 1007.5 |
| 20260504040042 | 38 | 239 | 0.0 | 2.0 | 0.00 | 0.00 | 0.00 | 64 | 1007.5 |
| 20260504035530 | 38 | 239 | 0.0 | 4.0 | 0.00 | 0.00 | 0.00 | 64 | 1007.6 |
| 20260504035030 | 38 | 229 | 0.0 | 4.0 | 0.00 | 0.00 | 0.00 | 64 | 1007.5 |
| 20260504034546 | 38 | 0 | 1.0 | 4.0 | 0.00 | 0.00 | 0.00 | 64 | 1007.5 |
| 20260504034030 | 38 | 263 | 0.0 | 3.0 | 0.00 | 0.00 | 0.00 | 65 | 1007.6 |
| 20260504033537 | 38 | 266 | 1.0 | 3.0 | 0.00 | 0.00 | 0.00 | 65 | 1007.5 |
| 20260504033046 | 37 | 244 | 1.0 | 3.0 | 0.00 | 0.00 | 0.00 | 66 | 1007.5 |
| 20260504032530 | 37 | 256 | 0.0 | 3.0 | 0.00 | 0.00 | 0.00 | 66 | 1007.5 |
| 20260504032029 | 37 | 0 | 1.0 | 3.0 | 0.00 | 0.00 | 0.00 | 66 | 1007.5 |
| 20260504031601 | 37 | 0 | 1.0 | 2.0 | 0.00 | 0.00 | 0.00 | 67 | 1007.5 |
| 20260504031031 | 37 | 272 | 1.0 | 2.0 | 0.00 | 0.00 | 0.00 | 68 | 1007.5 |
| 20260504030529 | 37 | 0 | 0.0 | 2.0 | 0.00 | 0.00 | 0.00 | 67 | 1007.6 |
| 20260504030042 | 37 | 272 | 0.0 | 2.0 | 0.00 | 0.00 | 0.00 | 67 | 1007.5 |
| 20260504025535 | 37 | 0 | 0.0 | 2.0 | 0.00 | 0.00 | 0.00 | 67 | 1007.5 |
| 20260504025029 | 37 | 0 | 0.0 | 2.0 | 0.00 | 0.00 | 0.00 | 67 | 1007.4 |